Regional Weather Roundup
Issued by NWS

Home | Current Version | Previous Version | Graphics & Text | Print | Product List | Glossary On
Versions: 1 2 3 4 5 6 7 8 9 10 11 12 13 14 15 16 17 18 19 20 21 22 23 24 25 26 27 28 29 30 31 32 33 34 35 36 37 38 39 40 41 42 43 44 45 46 47 48 49 50
000
ASUS43 KDTX 062310
RWRMI
MICHIGAN HOURLY REGIONAL WEATHER ROUNDUP
NATIONAL WEATHER SERVICE DETROIT/PONTIAC MI
600 PM EST FRI MAR 06 2015

NOTE: "FAIR" INDICATES FEW OR NO CLOUDS BELOW 12,000 FEET WITH NO
SIGNIFICANT WEATHER AND/OR OBSTRUCTION TO VISIBILITY.

MIZ047>049-052>055-059>063-066>070-074>076-081>083-070000-
SOUTHEAST LOWER MICHIGAN

CITY           SKY/WX    TMP DP  RH WIND       PRES   REMARKS
ADRIAN         MOCLDY    21   9  59 SW15      30.26F
ALMA           PTCLDY    21   6  51 S12G20    30.15F
ANN ARBOR      MOCLDY    20   8  60 SW16G24   30.24F
BAD AXE        MOCLDY    23   4  44 SW13      30.12F
DETROIT CITY   CLOUDY    23   6  48 SW15G25   30.25F
DETROIT        MOCLDY    22   8  55 S15       30.27F
FLINT          CLOUDY    25   2  37 S14       30.18F
GROSSE ILE     MOCLDY    21  12  68 S15       30.26F
HILLSDALE      CLOUDY    22   7  52 S12       30.21F
HOWELL         PTCLDY    22   1  40 S15G22    30.18F

CITY           SKY/WX    TMP DP  RH WIND       PRES   REMARKS
JACKSON        MOCLDY    22   4  46 S15       30.20F
LAMBERTVILLE   PTCLDY    25  10  54 S7G21     30.28F
LANSING        MOCLDY    22   3  44 S17       30.18F
LAPEER         NOT AVBL
MASON          PTCLDY    22   4  45 S8        30.18F
MONROE         PTCLDY    21  10  63 S14       30.26F
MT. CLEMENS    MOCLDY    22   5  48 SW17      30.21F
PONTIAC        MOCLDY    20   5  52 S12       30.19F
PORT HOPE        N/A     23   3  42 SW9       30.10F
PORT HURON     MOCLDY    19   9  63 S15       30.22F
TRI CITIES     CLOUDY    24   4  42 S15G24    30.14F
YPSILANTI      MOCLDY    23   9  55 S16G30    30.25F
$$
MIZ043>046-050>051-056>058-064>065-071>073-077>080-070000-
SOUTHWEST LOWER MICHIGAN

CITY           SKY/WX    TMP DP  RH WIND       PRES   REMARKS
BATTLE CREEK   CLOUDY    23   7  50 S17       30.19F
BENTON HARBOR  PTCLDY    23   8  52 S22G28    30.21F
BIG RAPIDS     CLOUDY    24   6  46 SW13      30.09S
COLDWATER      MOCLDY    23   7  51 S6        30.22F
HOLLAND        CLOUDY    25   8  48 S13       30.17F
GRAND RAPIDS   MOCLDY    23   6  48 SW13      30.16F
KALAMAZOO      PTCLDY    23   8  52 S17       30.20F
MARSHALL       MOCLDY    22   6  50 S13G20    30.20F
MUSKEGON       CLOUDY    22  11  62 S20G29    30.16F
$$
MIZ016>042-070000-
NORTHERN LOWER MICHIGAN

CITY           SKY/WX    TMP DP  RH WIND       PRES   REMARKS
ALPENA         CLOUDY    27   9  46 S10G21    30.00F
BEAVER ISLAND  CLOUDY    25  20  79 SW17G24   29.96F
BELLAIRE       CLOUDY    28  14  54 SW9       30.02S
CADILLAC       MOCLDY    21  11  64 SW20G25   30.01F
CHARLEVOIX     CLOUDY    27  15  61 CALM      30.02S
FRANKFORT      CLOUDY    25  20  80 S21G29    30.04F
GAYLORD        CLOUDY    25  11  55 SW18G28   29.96F
GRAYLING       CLOUDY    25   9  51 S15       30.01F
HARBOR SPRINGS CLOUDY    27  14  57 SW15G22   29.98S
HOUGHTON LAKE  MOCLDY    23   5  46 SW14      30.04S
MANISTEE       MOCLDY    25  16  68 S15G24    30.07S
OSCODA         CLOUDY    22   7  51 SW22G28   30.06F
PELLSTON       CLOUDY    28  13  53 SW13G22   29.97F
TRAVERSE CITY  CLOUDY    26  14  60 SW13G24   30.00F
$$
MIZ007>008-015-070000-
EASTERN UPPER MICHIGAN

CITY           SKY/WX    TMP DP  RH WIND       PRES   REMARKS
KINROSS        CLOUDY    25  19  80 SW13G24   29.94F
MACKINAC ISLAN CLOUDY    24  18  79 SW16G30   29.96F
NEWBERRY       CLOUDY    24  18  80 SW14G22   29.91S
S. S. MARIE    LGT SNOW  24  17  74 SW16G24   29.93F
$$
MIZ004>006-011>014-085-070000-
CENTRAL UPPER MICHIGAN

CITY           SKY/WX    TMP DP  RH WIND       PRES   REMARKS
MANISTIQUE     CLEAR     25  13  60 SW9G21    29.94R
ESCANABA       CLEAR     25  16  68 S13G20    29.95S
MENOMINEE      CLEAR     30  12  47 SW9       29.96S
SAWYER-GWINN   CLEAR     32   9  37 W7        29.86R
$$
MIZ001>003-009>011-084-070000-
WESTERN UPPER MICHIGAN

CITY           SKY/WX    TMP DP  RH WIND       PRES   REMARKS
IRON MOUNTAIN  CLEAR     31  10  41 W13G21    29.89S
HOUGHTON       CLEAR     25  13  60 W15       29.88R
COPPER HARBOR    N/A     28  12  51 MISG      29.87F
IRONWOOD       CLEAR     30  10  43 W15G21    29.91R
$$

ABBREVIATIONS USED IN REMARKS
   TC - TEMPERATURE IN CELSIUS
  WCI - WIND CHILL INDEX
   HX - HEAT INDEX
  VSB - VISIBILITY




USA.gov is the U.S. government's official web portal to all federal, state and local government web resources and services.